Orbital Elements at Epoch 2459200.5 (2020-Dec-17.0) TDB
Reference: JPL 20 (heliocentric ecliptic J2000)
Element | Value | Uncertainty (1-sigma) | Units |
e | .04504159513110173 | 5.1142e-08 | |
a | 3.105036703334759 | 2.7337e-08 | au |
q | 2.965180897275944 | 1.6043e-07 | au |
i | 8.493187091762604 | 5.7736e-06 | deg |
node | 67.18693667110297 | 3.4448e-05 | deg |
peri | 5.524627919858045 | 7.1337e-05 | deg |
M | 226.2624199965013 | 6.3169e-05 | deg |
tp | 2459942.919710869478 (2022-Dec-29.41971087) | 0.00035388 | TDB |
period | 1998.474145457247 5.47 | 2.6392e-05 7.226e-08 | d yr |
n | .1801374317592849 | 2.3789e-09 | deg/d |
Q | 3.244892509393574 | 2.8568e-08 | au |
|
| | Orbit Determination Parameters
Additional Information
|